Bookmark and Share
Track history (hours):
 

F/V Attalaya Berria

Last reported at 2014-Apr-17 21:33 UTC. Time now 2014-Apr-17 21:45 UTC.
Position N 43°30' W 001°35'.

Length 26 m.

Type: Fishing. MMSI: 228315000.

NotesDate/timePositionNaut miles runAvg speedWind from/ knotsBaromVisibWave heightAir tempDewpointWater temp
2014-Apr-17 21:33N 43°30' W 001°35'1 0.6
2014-Apr-17 20:33N 43°31' W 001°35'6 2.0
2014-Apr-17 17:21N 43°27' W 001°42'6 0.5
2014-Apr-17 06:15N 43°22' W 001°47'3 3.8
2014-Apr-17 05:27N 43°24' W 001°44'3 2.7
2014-Apr-17 04:20N 43°23' W 001°40'3 3.6
2014-Apr-17 03:33N 43°26' W 001°39'6 5.9
2014-Apr-17 02:31N 43°31' W 001°35'2 1.7
2014-Apr-17 01:33N 43°30' W 001°36'4 4.0
2014-Apr-17 00:33N 43°27' W 001°41'1 0.6
2014-Apr-16 23:31N 43°28' W 001°41'1 0.6
2014-Apr-16 22:32N 43°28' W 001°42'6 6.1
2014-Apr-16 21:33N 43°31' W 001°35'1 0.6
2014-Apr-16 20:22N 43°31' W 001°34'5 6.2
2014-Apr-16 19:33N 43°28' W 001°40'8 6.7
2014-Apr-16 18:23N 43°22' W 001°47'0 0.0
2014-Apr-16 17:27N 43°22' W 001°47'0 0.0
2014-Apr-16 15:31N 43°22' W 001°47'0 0.0
2014-Apr-16 12:06N 43°22' W 001°47'0 0.0
2014-Apr-16 11:32N 43°22' W 001°47'0 0.0
2014-Apr-16 10:33N 43°22' W 001°47'0 0.0
2014-Apr-16 07:33N 43°22' W 001°47'4 4.5
2014-Apr-16 06:33N 43°26' W 001°43'8 8.1
2014-Apr-16 05:33N 43°31' W 001°35'0 0.1
2014-Apr-16 04:32N 43°31' W 001°35'0 0.0
2014-Apr-16 03:33N 43°31' W 001°35'1 0.4
2014-Apr-16 02:25N 43°31' W 001°34'1 0.7
2014-Apr-16 01:29N 43°30' W 001°34'7 6.8
2014-Apr-16 00:32N 43°28' W 001°42'4 4.3
2014-Apr-15 23:31N 43°32' W 001°43'3 2.6
2014-Apr-15 22:33N 43°34' W 001°41'5 5.1
2014-Apr-15 21:33N 43°30' W 001°45'3 2.8
2014-Apr-15 20:33N 43°27' W 001°43'1 1.3
2014-Apr-15 19:33N 43°26' W 001°42'6 5.5
2014-Apr-15 18:33N 43°22' W 001°47'2 0.1
2014-Apr-14 23:31N 43°24' W 001°46'4 4.7
2014-Apr-14 22:34N 43°26' W 001°41'6 5.7
2014-Apr-14 21:34N 43°30' W 001°36'2 1.7
2014-Apr-14 20:33N 43°31' W 001°34'4 3.5
2014-Apr-14 19:34N 43°29' W 001°38'4 4.4
2014-Apr-14 18:34N 43°27' W 001°43'  
2014-Apr-10 01:32N 43°24' W 001°46'3 2.6
2014-Apr-10 00:32N 43°25' W 001°43'6 6.1
2014-Apr-09 23:33N 43°29' W 001°36'2 2.2
2014-Apr-09 22:33N 43°31' W 001°35'0 0.3
2014-Apr-09 21:33N 43°31' W 001°35'1 0.7
2014-Apr-09 20:33N 43°30' W 001°35'6 6.1
2014-Apr-09 19:32N 43°26' W 001°42'6 0.4
2014-Apr-09 05:19N 43°22' W 001°47'2 0.4
2014-Apr-09 00:33N 43°24' W 001°46'3 3.0
2014-Apr-08 23:33N 43°26' W 001°44'3 2.7
2014-Apr-08 22:33N 43°24' W 001°44'1 1.4
2014-Apr-08 21:33N 43°25' W 001°44'1 0.8
2014-Apr-08 20:34N 43°24' W 001°45'2 1.9
2014-Apr-08 19:29N 43°26' W 001°44'5 5.1
2014-Apr-08 18:34N 43°22' W 001°47'3 0.1
2014-Apr-08 00:33N 43°24' W 001°45'0 0.1
2014-Apr-07 23:32N 43°24' W 001°45'2 2.2
2014-Apr-07 22:25N 43°26' W 001°43'3 3.1
2014-Apr-07 21:33N 43°28' W 001°40'  

Dump ship's entire track history

sailing weather and tide predictions

F/V Attalaya Berria — FHCB — position and weather